Regional Weather Roundup
Issued by NWS Charleston, SC

Current Version | Previous Version | Graphics & Text | Print | Product List | Glossary On
Versions: 1 2 3 4 5 6 7 8 9 10 11 12 13 14 15 16 17 18 19 20 21 22 23 24 25 26 27 28 29 30 31 32 33 34 35 36 37 38 39 40 41 42 43 44 45 46 47 48 49 50
000 ASUS42 KCHS 210912 RWRCHS REGIONAL WEATHER ROUNDUP NATIONAL WEATHER SERVICE CHARLESTON SC 400 AM EST TUE FEB 21 2017 NOTE: "FAIR" INDICATES FEW OR NO CLOUDS BELOW 12,000 FEET WITH NO SIGNIFICANT WEATHER AND/OR OBSTRUCTIONS TO VISIBILITY. NOT ALL STATIONS ARE QUALITY CONTROLLED. USE DATA WITH CAUTION... ESPECIALLY DEWPOINT OBSERVATIONS. SCZ027-030-031-034>040-042>050-211000- ...SOUTHEAST SOUTH CAROLINA... CITY SKY/WX TMP DP RH WIND PRES REMARKS N CHARLESTON PTCLDY 54 52 93 NE6 30.16F FOG WATERFRONT PRK N/A 57 57 100 N6 30.16S MOUNT PLEASANT LGT RAIN 52 52 100 CALM 30.17S JOHNS ISLAND FAIR 57 57 100 N3 30.16F FOG PINOPOLIS N/A 55 55 100 VRB3 30.09F MONCKS CORNER FAIR 52 50 93 NE6 30.17F SUMMERVILLE FAIR 50 50 100 CALM 30.18S BEAUFORT MCAS MOCLDY 57 56 96 CALM 30.15S BEAUFORT ARPT CLOUDY 57 55 94 NE6 30.15R HILTON HEAD IS MOCLDY 59 59 100 NE5 30.15S WALTERBORO CLOUDY 52 50 93 NE3 30.17S ALLENDALE FAIR 52 48 87 CALM 30.15S ...SOUTHERN MIDLANDS AND PEE DEE... CITY SKY/WX TMP DP RH WIND PRES REMARKS GEORGETOWN FAIR 52 50 93 NE3 30.19F KINGSTREE FAIR 46 45 93 CALM 30.19S ORANGEBURG CLOUDY 52 48 86 E5 30.18S BARNWELL FAIR 52 50 93 CALM 30.16S AIKEN FAIR 46 43 87 NE3 30.20S MANNING FAIR 50 43 76 MISG 30.18F COLUMBIA CLOUDY 51 45 79 CALM 30.18R SUMTER PTCLDY 48 46 93 NE5 30.17F FLORENCE CLOUDY 50 47 89 E5 30.21S MYRTLE BEACH NOT AVBL N MYRTLE BEACH PTCLDY 53 48 83 NE8 30.20S $$ GAZ063-065-086>088-099>101-113>116-118-119-134>141-150-211000- ...SOUTHEAST GEORGIA... CITY SKY/WX TMP DP RH WIND PRES REMARKS SAVANNAH ARPT MOCLDY 58 54 86 E3 30.14F HUNTER AAF CLOUDY 57 57 100 CALM 30.11F FORT STEWART MOCLDY 53 52 94 CALM 30.11F STATESBORO CLOUDY 51 51 100 CALM 30.14F SYLVANIA CLOUDY N/A N/A N/A CALM 30.15F CLAXTON FAIR N/A N/A N/A CALM 30.14S ...CSRA...CENTRAL AND FAR SOUTHEAST GEORGIA... CITY SKY/WX TMP DP RH WIND PRES REMARKS THOMSON MOCLDY 49 49 99 CALM 30.19F AUGUSTA-BUSH CLOUDY 49 46 90 CALM 30.16S FOG AUGUSTA-DANIEL MOCLDY 57 46 66 E6 30.16S SWAINSBORO FAIR 55 50 82 E5 30.14S VIDALIA MOCLDY 54 52 94 CALM 30.14S EASTMAN FAIR 51 51 100 CALM 30.14F HAZLEHURST FAIR 55 51 88 CALM 30.12S ALMA MOCLDY 50 48 93 CALM 30.12S WAYCROSS CLOUDY 54 54 100 CALM 30.12S JESUP FAIR 52 48 87 CALM 30.13S BAXLEY FAIR 52 52 100 CALM 30.12S BRUNSWICK FOG 54 54 100 CALM 30.13S VSB 1/2 SAINT SIMONS CLOUDY 63 61 93 E6 30.11F $$ SCZ027-028-034-036>038-045-046-048>050-GAZ119-141-211000- ...LAKE AND SUPPLEMENTAL COASTAL OBSERVATIONS... STATION/POSITION TIME TEMP WIND PRES WAVE SWELL AIR SEA DIR/SP/G HT/PER HT/PER/DIR (UTC) (F) (DEG/KT/KT) (MB) (FT/S) (FT/S/D) WINYAH BAY 0745 58 50/ 6 1022.0 LAKE MURRAY 0820 54 CALM / 2 1021.3 ACE BASIN NERRS NOT AVBL FORT PULASKI 0848 61 60 70/ 7/ 9 1020.8S SAPELO ISLAND 0800 63 80/ 5 1020.0 $$ ANZ835-935-AMZ111-154-330-350-352-354-370-450-454-472-211000- ...C-MAN AND BUOY OBSERVATIONS... STATION/POSITION TIME TEMP WIND PRES WAVE SWELL AIR SEA DIR/SP/G HT/PER HT/PER/DIR (UTC) (F) (DEG/KT/KT) (MB) (FT/S) (FT/S/D) BUOY 41004 0750 68 66 80/ 14/ 16 1020.4 2/ 4 BUOY 41008 0750 63 62 70/ 8/ 8 1019.6 1/ 5 2/100/ 5 FOLLY BEACH CMAN 0800 59 40/ 9/ 10 1021.7F CAPERS NEARSHORE NOT AVBL FRIPP NEARSHORE 0808 61 60 50/ 8/ 10 1020.4F STATION/POSITION TIME TEMP WIND PRES WAVE SWELL AIR SEA DIR/SP/G HT/PER HT/PER/DIR (UTC) (F) (DEG/KT/KT) (MB) (FT/S) (FT/S/D) 5E ST. MARYS GA 0830 64 N/A 2/ 4 FRYING PAN BUOY 0850 66 67 50/ 16/ 19 1022.0S 4/ 6 2/ 50/ 8 BUOY 41025 0850 61 76 40/ 16/ 19 1022.8S 7/ 9 5/ 70/ 9 CAPE LOOKOUT NC 0800 53 20/ 12/ 14 1023.2F BUOY 41002 0850 66 71 40/ 16/ 19 1020.2R 5/ 6 BUOY 41010 NOT AVBL ST AUGUSTINE FL 0900 67 67 80/ 5/ 6 1019.9F $$

USA.gov is the U.S. government's official web portal to all federal, state and local government web resources and services.